Погода в Белоострове

Россия / Санкт-Петербург и Ленинградская область     60°09′00″N   30°00′42″E
темп.,
°C
ветер,
м/с
пор.,
м/с
влажн.,
%
обл.,
%
осадки,
мм/ч
давл.,
гПа
погр.,
м
20 июня, вс
вс2000:00+19ююв23690 0.0 101851
03:00+17ю22790 0.0 101827
06:00+19ю23730 0.0 1017108
09:00+24юз35540 0.0 1017418
12:00+27зюз36440 0.0 10171363
15:00+28зюз57424 0.0 10161224
18:00+28з47410 0.0 10151504
21:00+23ю11654 0.0 101515
21 июня, пн
пн2100:00+20ююв22715 0.0 101621
03:00+19ююв227828 0.0 101614
06:00+21ю23740 0.0 101695
09:00+27ююз36533 0.0 1016486
12:00+30юз46400 0.0 10161952
15:00+32ююз473680 0.0 10152101
18:00+30зюз46426 0.0 1014849
21:00+25зюз116212 0.0 101511
22 июня, вт
вт2200:00+22ююв22703 0.0 101620
03:00+20ю118310 0.3 101623
06:00+21ююв24864 0.2 101694
09:00+27ююв35532 0.2 1016471
12:00+31ю57389 0.0 10151497
15:00+33ю57275 0.0 10141861
18:00+32ююв573468 0.0 10131961
21:00+28ю410485 0.0 1013453
23 июня, ср
ср2300:00+22ююв3767100 0.0 1014133
03:00+20ю239115 1.1 101464
06:00+21ю278998 0.0 1014211
09:00+24зюз477297 0.0 1015494
12:00+27зюз4658100 0.0 1016805
15:00+28юз3554100 0.2 1016710
18:00+26зюз2465100 0.3 1016291
21:00+20юз2390100 1.4 101675
24 июня, чт
чт2400:00+18зюз12978 3.2 101736
03:00+17зюз11968 3.2 101716
06:00+19юз11928 0.0 101747
09:00+24ююз12729 0.3 1016331
12:00+28юз235432 0.0 1016971
15:00+31зюз244697 0.8 10151457
18:00+24ю5785100 3.5 1014336
21:00+19в2398100 11.7 101384